Montello, Wisconsin, United States (53949)
Lat: 43.79N, Lon: 89.32W
Wx Zone: WIZ046
Local Info
Past Weather Observations for Wednesday, January 21, 2015

NOTE: This archive is for the closest National Weather Service station to Montello. Information may differ from the station used for current weather conditions.

Click here for Long-term Archive

Time Weather Temperature Dewpoint Humidity Pressure Winds Precip Visibility
23:50
Overcast
Fog And Mist
28°F / -2°C 25°F / -4°C 86% 30.27 in
(1025 mb)
Calm - 4SM
23:30
Overcast
Fog And Mist
28°F / -2°C 25°F / -4°C 86% 30.27 in
(1025 mb)
Calm - 4SM
23:10
Overcast
Fog And Mist
28°F / -2°C 25°F / -4°C 86% 30.27 in
(1025 mb)
NW 3.5 mph
(NW 6 kph)
- 4SM
22:50
Overcast
Fog And Mist
28°F / -2°C 25°F / -4°C 86% 30.24 in
(1024 mb)
NNW 3.5 mph
(NNW 6 kph)
- 5SM
22:30
Overcast
28°F / -2°C 25°F / -4°C 86% 30.24 in
(1024 mb)
Calm - 7SM
22:10
Overcast
28°F / -2°C 25°F / -4°C 86% 30.24 in
(1024 mb)
Calm - 10SM
21:50
Overcast
28°F / -2°C 25°F / -4°C 86% 30.24 in
(1024 mb)
Calm - 10SM
21:30
Overcast
28°F / -2°C 25°F / -4°C 86% 30.24 in
(1024 mb)
Calm - 10SM
21:10
Overcast
28°F / -2°C 25°F / -4°C 86% 30.24 in
(1024 mb)
Calm - 10SM
20:50
Overcast
28°F / -2°C 25°F / -4°C 86% 30.24 in
(1024 mb)
Calm - 10SM
20:30
Overcast
28°F / -2°C 25°F / -4°C 86% 30.21 in
(1023 mb)
Calm - 10SM
20:10
Overcast
28°F / -2°C 25°F / -4°C 86% 30.21 in
(1023 mb)
Calm - 10SM
19:50
Overcast
28°F / -2°C 25°F / -4°C 86% 30.21 in
(1023 mb)
Calm - 10SM
19:30
Overcast
28°F / -2°C 23°F / -5°C 80% 30.21 in
(1023 mb)
Calm - 10SM
19:10
Overcast
28°F / -2°C 25°F / -4°C 86% 30.21 in
(1023 mb)
Calm - 10SM
18:50
Overcast
28°F / -2°C 23°F / -5°C 80% 30.21 in
(1023 mb)
Calm - 10SM
18:30
Overcast
28°F / -2°C 23°F / -5°C 80% 30.18 in
(1022 mb)
Calm - 10SM
18:10
Overcast
28°F / -2°C 23°F / -5°C 80% 30.18 in
(1022 mb)
Calm - 10SM
17:50
Overcast
28°F / -2°C 23°F / -5°C 80% 30.18 in
(1022 mb)
Calm - 10SM
17:30
Overcast
28°F / -2°C 23°F / -5°C 80% 30.18 in
(1022 mb)
Calm - 10SM
17:10
Overcast
28°F / -2°C 23°F / -5°C 80% 30.15 in
(1021 mb)
Calm - 10SM
16:50
Overcast
28°F / -2°C 21°F / -6°C 74% 30.15 in
(1021 mb)
Calm - 10SM
16:30
Overcast
28°F / -2°C 23°F / -5°C 80% 30.15 in
(1021 mb)
Calm - 10SM
16:10
Overcast
28°F / -2°C 23°F / -5°C 80% 30.15 in
(1021 mb)
Calm - 10SM
15:50
Overcast
28°F / -2°C 23°F / -5°C 80% 30.15 in
(1021 mb)
Calm - 10SM
15:30
Overcast
28°F / -2°C 23°F / -5°C 80% 30.15 in
(1021 mb)
Calm - 10SM
15:10
Overcast
28°F / -2°C 23°F / -5°C 80% 30.12 in
(1020 mb)
Calm - 10SM
14:50
Overcast
28°F / -2°C 23°F / -5°C 80% 30.12 in
(1020 mb)
Calm - 10SM
14:30
Overcast
28°F / -2°C 23°F / -5°C 80% 30.12 in
(1020 mb)
Calm - 10SM
14:10
Overcast
28°F / -2°C 23°F / -5°C 80% 30.09 in
(1019 mb)
Calm - 10SM
13:50
Overcast
28°F / -2°C 23°F / -5°C 80% 30.09 in
(1019 mb)
Calm - 10SM
13:30
Overcast
28°F / -2°C 23°F / -5°C 80% 30.09 in
(1019 mb)
Calm - 10SM
13:10
Overcast
28°F / -2°C 23°F / -5°C 80% 30.09 in
(1019 mb)
NE 3.5 mph
(NE 6 kph)
- 10SM
12:50
Overcast
28°F / -2°C 23°F / -5°C 80% 30.09 in
(1019 mb)
Calm - 10SM
12:30
Overcast
27°F / -3°C 23°F / -5°C 86% 30.09 in
(1019 mb)
Calm - 10SM
12:10
Overcast
27°F / -3°C 23°F / -5°C 86% 30.09 in
(1019 mb)
NE 4.6 mph
(NE 7 kph)
- 10SM
11:50
Overcast
28°F / -2°C 23°F / -5°C 80% 30.09 in
(1019 mb)
Calm - 10SM
11:30
Overcast
27°F / -3°C 23°F / -5°C 86% 30.09 in
(1019 mb)
NE 5.8 mph
(NE 9 kph)
- 10SM
11:10
Overcast
27°F / -3°C 23°F / -5°C 86% 30.09 in
(1019 mb)
ENE 4.6 mph
(ENE 7 kph)
- 7SM
10:50
Overcast
28°F / -2°C 23°F / -5°C 80% 30.09 in
(1019 mb)
E 6.9 mph
(E 11 kph)
- 10SM
10:30
Overcast
Light Snow
27°F / -3°C 23°F / -5°C 86% 30.09 in
(1019 mb)
E 5.8 mph
(E 9 kph)
- 10SM
10:10
Overcast
Light Snow
27°F / -3°C 25°F / -4°C 93% 30.06 in
(1018 mb)
ENE 5.8 mph
(ENE 9 kph)
- 7SM
09:50
Overcast
Light Snow
27°F / -3°C 23°F / -5°C 86% 30.06 in
(1018 mb)
E 6.9 mph
(E 11 kph)
- 4SM
09:30
Mostly Cloudy
Light Snow
27°F / -3°C 25°F / -4°C 93% 30.06 in
(1018 mb)
E 6.9 mph
(E 11 kph)
- 4SM
09:10
Overcast
Light Snow
27°F / -3°C 25°F / -4°C 93% 30.06 in
(1018 mb)
E 6.9 mph
(E 11 kph)
- 2 1/2SM
08:50
Overcast
Light Snow
27°F / -3°C 25°F / -4°C 93% 30.06 in
(1018 mb)
E 5.8 mph
(E 9 kph)
- 2 1/2SM
08:30
Overcast
Light Snow
27°F / -3°C 23°F / -5°C 86% 30.04 in
(1017 mb)
ENE 6.9 mph
(ENE 11 kph)
- 3SM
08:10
Overcast
Light Snow
27°F / -3°C 23°F / -5°C 86% 30.04 in
(1017 mb)
ENE 8.1 mph
(ENE 13 kph)
- 4SM
07:50
Overcast
Light Snow
27°F / -3°C 23°F / -5°C 86% 30.04 in
(1017 mb)
ENE 6.9 mph
(ENE 11 kph)
- 4SM
07:30
Overcast
Light Snow
27°F / -3°C 23°F / -5°C 86% 30.04 in
(1017 mb)
E 8.1 mph
(E 13 kph)
- 5SM
07:10
Overcast
Light Snow
27°F / -3°C 25°F / -4°C 93% 30.01 in
(1016 mb)
ENE 8.1 mph
(ENE 13 kph)
- 5SM
06:50
Overcast
Light Snow
27°F / -3°C 25°F / -4°C 93% 30.01 in
(1016 mb)
ENE 10.4 mph
(ENE 17 kph)
- 4SM
06:30
Overcast
Light Snow
27°F / -3°C 25°F / -4°C 93% 30.01 in
(1016 mb)
ENE 6.9 mph
(ENE 11 kph)
- 4SM
06:10
Overcast
Light Snow
27°F / -3°C 25°F / -4°C 93% 30.01 in
(1016 mb)
E 8.1 mph
(E 13 kph)
- 4SM
05:50
Overcast
Light Snow
27°F / -3°C 25°F / -4°C 93% 29.98 in
(1015 mb)
ENE 8.1 mph
(ENE 13 kph)
- 5SM
05:30
Overcast
Light Snow
27°F / -3°C 25°F / -4°C 93% 29.98 in
(1015 mb)
E 6.9 mph
(E 11 kph)
- 4SM
05:10
Overcast
Light Snow
27°F / -3°C 25°F / -4°C 93% 29.98 in
(1015 mb)
E 5.8 mph
(E 9 kph)
- 4SM
04:50
Overcast
Light Snow
27°F / -3°C 25°F / -4°C 93% 29.98 in
(1015 mb)
E 5.8 mph
(E 9 kph)
- 4SM
04:30
Overcast
Light Snow
27°F / -3°C 25°F / -4°C 93% 29.98 in
(1015 mb)
E 5.8 mph
(E 9 kph)
- 5SM
04:10
Overcast
Fog And Mist
27°F / -3°C 25°F / -4°C 93% 29.98 in
(1015 mb)
Calm - 5SM
03:50
Overcast
Light Snow
27°F / -3°C 25°F / -4°C 93% 29.98 in
(1015 mb)
E 4.6 mph
(E 7 kph)
- 5SM
03:30
Overcast
Fog And Mist
27°F / -3°C 25°F / -4°C 93% 29.98 in
(1015 mb)
E 4.6 mph
(E 7 kph)
- 5SM
03:10
Overcast
Light Snow
28°F / -2°C 25°F / -4°C 86% 29.98 in
(1015 mb)
E 6.9 mph
(E 11 kph)
- 7SM
02:50
Overcast
Light Snow
28°F / -2°C 25°F / -4°C 86% 29.98 in
(1015 mb)
E 5.8 mph
(E 9 kph)
- 7SM
02:30
Overcast
Light Snow
28°F / -2°C 25°F / -4°C 86% 29.98 in
(1015 mb)
ESE 5.8 mph
(ESE 9 kph)
- 7SM
02:10
Overcast
Light Snow
28°F / -2°C 25°F / -4°C 86% 29.98 in
(1015 mb)
ESE 6.9 mph
(ESE 11 kph)
- 5SM
01:50
Overcast
Light Snow
28°F / -2°C 25°F / -4°C 86% 29.98 in
(1015 mb)
ESE 6.9 mph
(ESE 11 kph)
- 4SM
01:30
Overcast
Light Snow
28°F / -2°C 25°F / -4°C 86% 29.98 in
(1015 mb)
ESE 4.6 mph
(ESE 7 kph)
- 3SM
01:10
Overcast
Light Snow
28°F / -2°C 25°F / -4°C 86% 29.98 in
(1015 mb)
ESE 5.8 mph
(ESE 9 kph)
- 2 1/2SM
00:50
Overcast
Light Snow
28°F / -2°C 27°F / -3°C 93% 29.98 in
(1015 mb)
SE 4.6 mph
(SE 7 kph)
- 4SM
00:30
Overcast
Light Snow
28°F / -2°C 27°F / -3°C 93% 29.98 in
(1015 mb)
SE 5.8 mph
(SE 9 kph)
- 2 1/2SM
00:10
Overcast
Light Snow
28°F / -2°C 27°F / -3°C 93% 29.98 in
(1015 mb)
ESE 4.6 mph
(ESE 7 kph)
- 4SM
Time Weather Temperature Dewpoint Humidity Pressure Winds Precip Visibility


Weather for websites

WeatherForYou.com, LLC is not responsible for any damages or problems caused by this service. Current weather conditions are obtained from the closest station including government and personal stations which may have varying degrees of accuracy. Weather forecasts are derived from the NOAA NDFD. Like all things, this site belongs to Jesus Christ... He just trusts me to maintain it. If you have any questions or comments email webmaster@weatherforyou.com

Copyright © 2015, WeatherForYou.com LLC. All rights reserved.